Regional Weather Roundup
Issued by NWS Grand Forks, ND

Home | Current Version | Previous Version | Graphics & Text | Print | Product List | Glossary On
Versions: 1 2 3 4 5 6 7 8 9 10 11 12 13 14 15 16 17 18 19 20 21 22 23 24 25 26 27 28 29 30 31 32 33 34 35 36 37 38 39 40 41 42 43 44 45 46 47 48 49 50
000
ASUS43 KFGF 211610
RWRFGF
PRAIRIE TO PINES  WEATHER ROUNDUP
NATIONAL WEATHER SERVICE EASTERN NORTH DAKOTA/GRAND FORKS ND
1000 AM CST SUN JAN 21 2018

 **SATELLITE DATA USED TO AUGMENT SKY COVER AT AUTOMATED STATIONS**
 *****  WEATHER ACROSS EASTERN NORTH DAKOTA  *****

CITY           SKY/WX    TMP DP  RH WIND       PRES   REMARKS
GRAND FORKS    CLOUDY    23  22  96 N6        30.07R WCI  16
GRAND FRKS AFB PTSUNNY   23  22  94 N7        30.07R WCI  15
DEVILS LAKE    FOG       16  15  96 CALM      30.06R VSB<1/4
FARGO          FOG       18  17  96 N10       30.05R VSB 1   WCI   6
WAHPETON ARPT  FAIR      25  21  86 N5        30.03R WCI  19
$$

 ***** WEATHER ACROSS CENTRAL AND WESTERN NORTH DAKOTA  *****

CITY           SKY/WX    TMP DP  RH WIND       PRES   REMARKS
BISMARCK       FAIR      16  15  96 CALM      30.07R
MINOT          FAIR      17  12  80 SW8       30.02R WCI   7
JAMESTOWN      FAIR      18  16  92 N7        30.04R WCI   9
MINOT AFB      FAIR      14  10  86 SW5       30.01R WCI   6
GARRISON         N/A      8   6  92 CALM      30.02R
WILLISTON      FAIR      12  11  95 SW3       30.02R
DICKINSON      FAIR      24  16  71 W10       29.98R WCI  14
HETTINGER      PTSUNNY   22  17  81 W6        30.02R WCI  14
$$

 *****  OTHER AIRPORT OBSERVATIONS IN OUR AREA  *****

CITY           SKY/WX    TMP DP  RH WIND       PRES   REMARKS
WALHALLA       FAIR      21  21 100 N7        30.09R WCI  13
GRAFTON AIRPOR NOT AVBL
VALLEY CITY AR NOT AVBL
CANDO          CLOUDY    14  14 100 CALM      30.07R FOG
CAVALIER APRT    N/A     21  21 100 N6        30.08R WCI  14
GWINNER          N/A     25  23  93 N15       30.03R WCI  12
SHEYENNE NWR     N/A     24  22  93 NE8       29.95S WCI  15
ROLLA          PTSUNNY   14  12  92 CALM      30.03R
 ***** THE ABOVE OBSERVATIONS ARE NON NWS ARE NOT QUALITY
       CONTROLLED AND MAY MIS-REPORT RAIN FOR SNOW...
$$

  *****  WEATHER ACROSS NORTHERN MINNESOTA  *****

CITY           SKY/WX    TMP DP  RH WIND       PRES   REMARKS
FLAG ISLAND    CLOUDY    23  21  93 NW9       30.04R WCI  13
WARROAD        CLOUDY    25  19  80 NW5       30.05R FOG     WCI  19
ROSEAU         CLOUDY    25  19  80 N6        30.05R WCI  18
HALLOCK        CLOUDY    21  19  93 N5        30.08R WCI  15
THF RVR FALLS  CLOUDY    21  20  96 N3        30.05R
BAUDETTE       CLOUDY    24  23  96 N8        30.01S FOG     WCI  15
WASKISH        FOG       19  18  93 CALM      30.03R VSB<1/4
CROOKSTON      PTSUNNY   19  18  93 CALM      30.07R
STEPHEN NDAWN    N/A     19  18  93 N3          N/A
GREENBUSH NDAW   N/A     21  19  93 NW7         N/A  WCI  13
$$
  *****  WEATHER ACROSS CENTRAL AND WEST MINNESOTA  *****

CITY           SKY/WX    TMP DP  RH WIND       PRES   REMARKS
FOSSTON        PTSUNNY   19  18  93 CALM      30.03S FOG
BEMIDJI        FOG       16  14  93 NW3       30.01R VSB<1/4
PARK RAPIDS    FAIR      15  14  95 CALM      29.98S FOG
ELBOW LAKE     FAIR      29  27  93 CALM      30.00R
WADENA         FAIR      25  25 100 CALM      29.99R
DETROIT LAKES  FAIR      21  19  93 CALM      30.01R
MOORHEAD       FAIR      19  18  93 N7        30.05R WCI  10
FERGUS FALLS   FAIR      27  25  93 NE3       30.00R
MORRIS MN      FAIR      30  28  93 NW5       29.99R
STAPLES        FAIR      23  23 100 CALM      29.99R FOG
$$
  *****  WEATHER ELSEWHERE ACROSS MINNESOTA  *****

CITY           SKY/WX    TMP DP  RH WIND       PRES   REMARKS
DULUTH         FAIR      28  25  88 N5        29.97S WCI  23
INTRNTL FALLS  FOG       19  17  92 CALM      30.02R VSB<1/4
ELY            FOG       19  19 100 CALM      29.98R VSB<1/4
CLOQUET        FAIR      27  25  93 N5        29.98S WCI  21
WHEATON        FAIR      27  23  86 NW6       30.04R WCI  20
BRAINERD       FAIR      28  25  88 N5        29.99S WCI  23
HIBBING        FOG       10   8  92 NW3       29.98S VSB<1/4
ALEXANDRIA     CLOUDY    33  28  81 E5        29.98R
SAINT CLOUD    CLOUDY    33  29  85 N5        29.98S
MINNEAPOLIS    CLOUDY    36  30  79 NE3       29.99R
$$

  *****  WEATHER ACROSS SOUTH DAKOTA  *****

CITY           SKY/WX    TMP DP  RH WIND       PRES   REMARKS
SIOUX FALLS    CLOUDY    37  31  78 NE10      29.94R
BROOKINGS      CLOUDY    35  32  88 NE9       29.96R
WATERTOWN      CLOUDY    32  29  88 CALM      29.97R
HURON          LGT SNOW  32  32 100 NW6       30.01R FOG
SISSETON         N/A     28  24  85 NW9       30.01R WCI  19
ABERDEEN       CLOUDY    26  22  84 N8        30.03R WCI  18
MITCHELL       CLOUDY    35  33  92 N12       29.99R
PIERRE         CLOUDY    31  28  89 NW9       30.02R WCI  23
MOBRIDGE       FAIR      28  22  78 NW7       30.01R WCI  21
RAPID CITY     CLOUDY    30  24  78 N10       30.00R WCI  21
$$

  *****  SOME WEATHER IN NEARBY STATES *****

CITY           SKY/WX    TMP DP  RH WIND       PRES   REMARKS
GLASGOW MT     FAIR       7   3  84 CALM      30.01R
GREAT FALLS MT FAIR      25  16  68 SW10      30.01S WCI  15
CHEYENNE WY    SNOW      20  19  96 N16       29.84R VSB 1/2 WCI   6
SCOTTSBLUFF NE MIX PCPN  29  26  89 N21       29.91R WCI  16
OMAHA NE       DRIZZLE   41  38  89 N8        29.80S FOG
DES MOINES IA  CLOUDY    41  38  89 E7        29.85F FOG
DAVENPORT IA   CLOUDY    43  38  82 SE8       29.94S
CHICAGO IL     FOG       40  39  97 CALM      29.97S VSB 1/2
EAU CLAIRE WI  CLOUDY    33  29  85 N3        29.98S FOG
LA CROSSE WI   FOG       27  25  92 N3        29.98R VSB<1/4
$$

  *****  SOME NATIONAL WEATHER *****

CITY           SKY/WX    TMP DP  RH WIND       PRES   REMARKS
LA GUARDIA NY  PTSUNNY   46  29  51 NW9       30.19R
RALEIGH NC     FAIR      55  41  59 CALM      30.27S
ATLANTA GA     FAIR      59  42  53 CALM      30.29R
NEW ORLEANS LA FAIR      68  60  75 SE13      30.17S
OKLAHOMA CITY  CLOUDY    56  52  86 S15       29.80R
ALBUQUERQUE NM PTSUNNY   32  20  61 SW10      29.87R WCI  24
SALT LAKE CITY PTSUNNY   29  22  75 N3        30.15R
LOS ANGELES CA FAIR      50  27  40 NE5       30.26R
BOISE ID       FAIR      28  23  81 SE7       30.23R WCI  21
SEATTLE WA     CLOUDY    48  39  71 S22G31    29.73F
$$

*** WEATHER ACROSS MANITOBA...SASKATCHEWAN AND ONTARIO ***
                ***ONTARIO***

CITY           SKY/WX    TMP DP  RH WIND       PRES   REMARKS
GERALDTON      FLURRIES   7   3  85 E9        30.11R WCI  -7
THUNDER BAY    CLOUDY    23  21  93 W3        30.04R FOG
SIOUX LOOKOUT  CLOUDY    12  10  92 E6        30.06R WCI   3
TORONTO        MOSUNNY   37  30  75 VRB2      30.09S
BIG TROUT LK   SUNNY    -13 -17  84 N3        30.30R
PICKLE LAKE    FLURRIES   0  -4  85 NE8       30.15R WCI -15
DRYDEN         CLOUDY    18  16  93 NE7       30.03R WCI   8
KENORA         CLOUDY    21  21 100 NW5       30.02R WCI  15
$$
                *** MANITOBA***

CITY           SKY/WX    TMP DP  RH WIND       PRES   REMARKS
BRANDON        CLOUDY    19  16  86 E10       30.06R FOG     WCI   8
DAUPHIN        CLOUDY    14  12  92 E6        30.08S WCI   5
ISLAND LAKE    PTCLDY    -4  -9  77 E9        30.26R WCI -20
PILOT MOUND      N/A     21  19  93 E3          N/A
THE PAS        LGT SNOW   1  -6  71 E7        30.11R WCI -11
THOMPSON       FLURRIES  -9 -15  77 NE8       30.26R WCI -26
WINNIPEG       CLOUDY    16  12  86 NE7       30.11R WCI   6
LYNN LAKE      FLURRIES  -4  -8  84 E8        30.14S WCI -19
CHURCHILL      LGT SNOW -17 -22  76 W10       30.46S FOG     WCI -37
GILLAM         CLOUDY   -15 -20  76 VRB2      30.38R
$$
                ***SASKATCHEWAN***

CITY           SKY/WX    TMP DP  RH WIND       PRES   REMARKS
ESTEVAN        PTCLDY    12   9  85 SE5       29.99R WCI   4
KINDERSLEY     PTCLDY    10   7  85 SW5       29.90R WCI   2
LLOYDMINSTER   CLOUDY    19  19 100 SE5       29.89R FOG     WCI  13
PRINCE ALBERT  FLURRIES  16  12  86 E6        29.98R WCI   7
REGINA         PTCLDY    10   7  85 SE10      29.94S WCI  -3
YORKTON        CLOUDY    23  21  93 SE6       29.98R WCI  16
N. BATTLEFORD  FOG       18  14  86 W2        29.96R VSB 1/2
LA RONGE       FLURRIES   7   3  85 NW6       30.02R WCI  -3
SASKATOON      FOG       18  16  93 W3        29.96R VSB 1/8
SWIFT CURRENT  CLEAR     25  18  74 W16G22    29.90R WCI  12
$$
NOTE: THESE ARE AUTOMATED STATIONS WITH LIMITED QUALITY CONTROL
      "FAIR" INDICATES FEW OR NO CLOUDS BELOW 12,000 FEET WITH NO
      SIGNIFICANT WEATHER AND/OR OBSTRUCTIONS TO VISIBILITY.
      SKY/WX - SKY CONDITION AND SIGNIFICANT WEATHER.
      TMP - AIR TEMPERATURE.    DP   - DEWPOINT TEMPERATURE.
      RH  - RELATIVE HUMIDITY.  PRES - PRESSURE.
      HX  - HEAT INDEX.         WCI  - WIND CHILL INDEX.
$




USA.gov is the U.S. government's official web portal to all federal, state and local government web resources and services.